| time (UTC) | temp F | wind direction | speed MPH | gust MPH | rain 1hr in | rain 24hr in | rain mn in | humidity % | barometer mb |
| 20260509091510 | 51 | 211 | 0.0 | 2.0 | 0.00 | 0.00 | 0.00 | 91 | 1005.0 |
| 20260509090007 | 51 | 221 | 1.0 | 3.0 | 0.00 | 0.00 | 0.00 | 91 | 1005.0 |
| 20260509084516 | 51 | 213 | 1.0 | 3.0 | 0.00 | 0.00 | 0.00 | 91 | 1005.1 |
| 20260509083019 | 50 | 213 | 0.0 | 2.0 | 0.00 | 0.00 | 0.00 | 90 | 1005.2 |
| 20260509080013 | 50 | 200 | 0.0 | 2.0 | 0.00 | 0.00 | 0.00 | 89 | 1005.1 |
| 20260509073009 | 51 | 200 | 0.0 | 2.0 | 0.00 | 0.00 | 0.00 | 88 | 1005.4 |
| 20260509071519 | 52 | 193 | 0.0 | 2.0 | 0.00 | 0.00 | 0.00 | 87 | 1005.4 |
| 20260509064520 | 53 | 230 | 0.0 | 2.0 | 0.00 | 0.00 | 0.00 | 85 | 1006.0 |
| 20260509063015 | 53 | 214 | 0.0 | 4.0 | 0.00 | 0.00 | 0.00 | 85 | 1006.0 |
| 20260509061512 | 53 | 214 | 1.0 | 3.0 | 0.00 | 0.00 | 0.00 | 84 | 1006.2 |
| 20260509060010 | 54 | 211 | 1.0 | 3.0 | 0.00 | 0.00 | 0.00 | 84 | 1006.3 |
| 20260509054532 | 54 | 213 | 0.0 | 6.0 | 0.00 | 0.00 | 0.00 | 83 | 1006.5 |
| 20260509053059 | 55 | 184 | 2.0 | 5.0 | 0.00 | 0.00 | 0.00 | 83 | 1006.5 |
| 20260509051525 | 55 | 221 | 2.0 | 5.0 | 0.00 | 0.00 | 0.00 | 82 | 1006.5 |
| 20260509050036 | 55 | 218 | 0.0 | 5.0 | 0.00 | 0.00 | 0.00 | 81 | 1006.5 |
| 20260509044521 | 56 | 196 | 1.0 | 4.0 | 0.00 | 0.00 | 0.00 | 79 | 1006.5 |
| 20260509043010 | 56 | 204 | 1.0 | 6.0 | 0.00 | 0.00 | 0.00 | 78 | 1006.4 |
| 20260509041522 | 57 | 205 | 1.0 | 5.0 | 0.00 | 0.00 | 0.00 | 76 | 1006.6 |
| 20260509040021 | 57 | 183 | 2.0 | 6.0 | 0.00 | 0.00 | 0.00 | 74 | 1006.7 |
| 20260509034524 | 58 | 205 | 2.0 | 9.0 | 0.00 | 0.00 | 0.00 | 72 | 1006.8 |
| 20260509033018 | 58 | 239 | 1.0 | 5.0 | 0.00 | 0.00 | 0.00 | 70 | 1006.6 |
| 20260509031518 | 59 | 221 | 1.0 | 6.0 | 0.00 | 0.00 | 0.00 | 69 | 1006.7 |
| 20260509030026 | 59 | 229 | 1.0 | 8.0 | 0.00 | 0.00 | 0.00 | 68 | 1006.7 |
| 20260509024525 | 59 | 196 | 3.0 | 9.0 | 0.00 | 0.00 | 0.00 | 66 | 1006.7 |
| 20260509023029 | 59 | 209 | 1.0 | 4.0 | 0.00 | 0.00 | 0.00 | 64 | 1006.7 |
| 20260509021525 | 58 | 200 | 0.0 | 1.0 | 0.00 | 0.00 | 0.00 | 64 | 1006.6 |
| 20260509020020 | 59 | 193 | 0.0 | 0.0 | 0.00 | 0.00 | 0.00 | 63 | 1006.5 |
| 20260509014520 | 61 | 193 | 0.0 | 2.0 | 0.00 | 0.00 | 0.00 | 61 | 1006.4 |
| 20260509013028 | 61 | 221 | 0.0 | 1.0 | 0.00 | 0.00 | 0.00 | 59 | 1006.4 |
| 20260509011527 | 63 | 232 | 0.0 | 4.0 | 0.00 | 0.00 | 0.00 | 54 | 1006.4 |
| 20260509010013 | 63 | 250 | 0.0 | 4.0 | 0.00 | 0.00 | 0.00 | 51 | 1006.2 |
| 20260509004506 | 64 | 236 | 1.0 | 4.0 | 0.00 | 0.00 | 0.00 | 50 | 1006.4 |
| 20260509003004 | 65 | 217 | 1.0 | 4.0 | 0.00 | 0.00 | 0.00 | 48 | 1006.4 |
| 20260509001504 | 65 | 220 | 1.0 | 3.0 | 0.00 | 0.00 | 0.00 | 47 | 1006.5 |
| 20260509000006 | 65 | 230 | 0.0 | 3.0 | 0.00 | 0.00 | 0.00 | 47 | 1006.5 |
| 20260508233012 | 66 | 237 | 1.0 | 4.0 | 0.00 | 0.00 | 0.00 | 45 | 1006.6 |
| 20260508231510 | 66 | 196 | 2.0 | 6.0 | 0.00 | 0.00 | 0.00 | 46 | 1006.6 |
| 20260508230009 | 66 | 214 | 3.0 | 7.0 | 0.00 | 0.00 | 0.00 | 46 | 1006.6 |
| 20260508224505 | 67 | 230 | 1.0 | 6.0 | 0.00 | 0.00 | 0.00 | 45 | 1006.6 |
| 20260508223003 | 68 | 95 | 2.0 | 8.0 | 0.00 | 0.00 | 0.00 | 45 | 1006.8 |
| 20260508220017 | 68 | 229 | 1.0 | 3.0 | 0.00 | 0.00 | 0.00 | 46 | 1006.9 |
| 20260508213007 | 68 | 268 | 1.0 | 7.0 | 0.00 | 0.04 | 0.00 | 45 | 1007.1 |
| 20260508211505 | 68 | 109 | 3.0 | 6.0 | 0.00 | 0.04 | 0.00 | 46 | 1007.1 |
| 20260508204522 | 68 | 184 | 1.0 | 7.0 | 0.00 | 0.04 | 0.00 | 43 | 1007.2 |
| 20260508203014 | 67 | 220 | 1.0 | 5.0 | 0.00 | 0.04 | 0.00 | 45 | 1007.3 |
| 20260508201515 | 68 | 215 | 3.0 | 6.0 | 0.00 | 0.04 | 0.00 | 41 | 1007.7 |
| 20260508200007 | 68 | 215 | 0.0 | 6.0 | 0.00 | 0.04 | 0.00 | 41 | 1007.8 |
| 20260508194526 | 68 | 95 | 1.0 | 6.0 | 0.00 | 0.04 | 0.00 | 46 | 1008.1 |
| 20260508191520 | 67 | 197 | 1.0 | 4.0 | 0.00 | 0.04 | 0.00 | 45 | 1008.5 |
| 20260508190034 | 66 | 257 | 0.0 | 4.0 | 0.00 | 0.04 | 0.00 | 48 | 1008.7 |
| 20260508184515 | 65 | 196 | 2.0 | 7.0 | 0.00 | 0.04 | 0.00 | 48 | 1008.8 |
| 20260508183013 | 66 | 238 | 1.0 | 4.0 | 0.00 | 0.04 | 0.00 | 50 | 1009.0 |
| 20260508181508 | 65 | 248 | 2.0 | 5.0 | 0.00 | 0.04 | 0.00 | 53 | 1009.2 |
| 20260508180025 | 64 | 160 | 1.0 | 4.0 | 0.00 | 0.04 | 0.00 | 54 | 1009.3 |
| 20260508174535 | 64 | 194 | 0.0 | 6.0 | 0.00 | 0.04 | 0.00 | 60 | 1009.5 |
| 20260508173021 | 64 | 92 | 2.0 | 5.0 | 0.00 | 0.04 | 0.00 | 56 | 1009.7 |
| 20260508171516 | 63 | 134 | 1.0 | 6.0 | 0.00 | 0.04 | 0.00 | 60 | 1010.0 |
| 20260508170014 | 63 | 253 | 3.0 | 7.0 | 0.00 | 0.04 | 0.00 | 62 | 1010.1 |
| 20260508163039 | 61 | 80 | 0.0 | 4.0 | 0.00 | 0.04 | 0.00 | 63 | 1010.5 |
| 20260508161526 | 61 | 184 | 1.0 | 5.0 | 0.00 | 0.04 | 0.00 | 64 | 1010.9 |
| 20260508160004 | 61 | 161 | 0.0 | 3.0 | 0.00 | 0.04 | 0.00 | 65 | 1010.9 |
| 20260508154521 | 60 | 119 | 1.0 | 4.0 | 0.00 | 0.04 | 0.00 | 69 | 1011.0 |
| 20260508153024 | 59 | 335 | 1.0 | 4.0 | 0.00 | 0.04 | 0.00 | 68 | 1011.2 |
| 20260508151522 | 58 | 221 | 1.0 | 4.0 | 0.00 | 0.04 | 0.00 | 69 | 1011.3 |
| 20260508150011 | 57 | 74 | 1.0 | 4.0 | 0.00 | 0.04 | 0.00 | 70 | 1011.3 |
| 20260508144507 | 56 | 166 | 0.0 | 4.0 | 0.00 | 0.04 | 0.00 | 72 | 1011.5 |
| 20260508143022 | 55 | 221 | 1.0 | 4.0 | 0.00 | 0.04 | 0.00 | 75 | 1011.6 |
| 20260508141521 | 53 | 227 | 0.0 | 4.0 | 0.00 | 0.04 | 0.00 | 77 | 1011.7 |
| 20260508140015 | 52 | 105 | 0.0 | 4.0 | 0.00 | 0.04 | 0.00 | 79 | 1011.8 |
| 20260508133014 | 49 | 79 | 1.0 | 3.0 | 0.00 | 0.04 | 0.00 | 90 | 1011.6 |
| 20260508131510 | 47 | 112 | 0.0 | 2.0 | 0.00 | 0.04 | 0.00 | 93 | 1011.6 |
| 20260508130025 | 46 | 97 | 0.0 | 3.0 | 0.00 | 0.04 | 0.00 | 94 | 1011.6 |
| 20260508124521 | 45 | 101 | 0.0 | 4.0 | 0.00 | 0.04 | 0.00 | 94 | 1011.6 |
| 20260508123024 | 44 | 125 | 0.0 | 3.0 | 0.00 | 0.04 | 0.00 | 94 | 1011.7 |
| 20260508120028 | 42 | 298 | 0.0 | 0.0 | 0.00 | 0.04 | 0.00 | 94 | 1011.5 |
| 20260508114524 | 41 | 298 | 0.0 | 0.0 | 0.00 | 0.04 | 0.00 | 94 | 1011.7 |
| 20260508113026 | 41 | 298 | 0.0 | 0.0 | 0.00 | 0.04 | 0.00 | 94 | 1011.6 |
| 20260508111522 | 40 | 298 | 0.0 | 0.0 | 0.00 | 0.04 | 0.00 | 94 | 1011.4 |
| 20260508110029 | 40 | 298 | 0.0 | 0.0 | 0.00 | 0.04 | 0.00 | 94 | 1011.3 |
| 20260508104517 | 39 | 298 | 0.0 | 0.0 | 0.00 | 0.04 | 0.00 | 94 | 1011.4 |
| 20260508103032 | 38 | 298 | 0.0 | 0.0 | 0.00 | 0.04 | 0.00 | 94 | 1011.6 |
| 20260508101535 | 38 | 298 | 0.0 | 0.0 | 0.00 | 0.04 | 0.00 | 93 | 1011.5 |
| 20260508100011 | 38 | 298 | 0.0 | 0.0 | 0.00 | 0.04 | 0.00 | 94 | 1011.4 |
| 20260508094506 | 37 | 298 | 0.0 | 0.0 | 0.00 | 0.04 | 0.00 | 93 | 1011.6 |
| 20260508093040 | 37 | 298 | 0.0 | 0.0 | 0.00 | 0.04 | 0.00 | 93 | 1011.7 |